Temp
-10 -10 -11 -11 -11 -10 -11 -10 -10 -10 -9 -9 -9 -9 -8 -8 -8 -8 -8 -8 -9 -9 -8 -8 -8 -8 -9 -9 -8 -8 -8 -8 -8 -8 -8 -8 -8 -8 -8 -9 -9 -9 -9 -9 -8 -7 -8 -8 -8
-10 -10 -10 -11 -10 -11 -11 -10 -10 -10 -9 -9 -9 -9 -8 -8 -8 -8 -8 -8 -9 -9 -9 -8 -8 -8 -9 -9 -9 -8 -8 -9 -8 -9 -8 -8 -8 -8 -8 -8 -8 -8 -9 -8 -7 -8 -8 -8 -8
-10 -10 -10 -10 -10 -10 -11 -10 -10 -10 -10 -9 -9 -9 -9 -8 -8 -8 -8 -8 -8 -9 -9 -8 -8 -8 -8 -9 -9 -8 -9 -9 -9 -9 -9 -8 -8 -8 -8 -8 -8 -9 -9 -9 -8 -8 -8 -8 -9
-10 -10 -10 -10 -10 -10 -10 -10 -10 -10 -10 -9 -9 -9 -9 -8 -8 -8 -8 -8 -8 -9 -9 -8 -8 -8 -8 -8 -9 -9 -9 -9 -9 -9 -9 -9 -9 -9 -9 -9 -9 -9 -9 -8 -8 -8 -8 -9 -9
-10 -10 -10 -10 -10 -10 -10 -10 -10 -10 -10 -10 -9 -9 -9 -9 -8 -8 -8 -8 -8 -8 -9 -8 -8 -8 -8 -8 -8 -9 -9 -9 -9 -9 -9 -9 -9 -9 -9 -8 -9 -9 -9 -9 -9 -9 -9 -9 -9
-10 -10 -10 -10 -10 -10 -10 -10 -10 -10 -10 -10 -9 -9 -9 -9 -8 -8 -8 -8 -8 -8 -9 -9 -8 -8 -8 -8 -8 -8 -9 -9 -9 -9 -9 -9 -9 -9 -9 -9 -9 -9 -9 -9 -9 -9 -9 -9 -9
-10 -10 -10 -10 -10 -10 -10 -10 -10 -10 -10 -10 -10 -9 -9 -9 -9 -8 -8 -8 -8 -9 -9 -9 -8 -8 -8 -8 -8 -8 -8 -8 -9 -9 -9 -9 -9 -9 -8 -9 -9 -9 -9 -9 -8 -9 -9 -9 -9
-10 -10 -10 -10 -10 -11 -10 -10 -10 -10 -10 -10 -10 -9 -9 -9 -9 -9 -9 -8 -8 -9 -9 -8 -8 -8 -8 -8 -8 -8 -8 -8 -8 -8 -8 -8 -8 -8 -8 -8 -8 -8 -8 -8 -8 -9 -9 -9 -9
-10 -10 -10 -10 -10 -11 -10 -10 -10 -10 -11 -10 -10 -10 -10 -9 -9 -9 -9 -9 -9 -9 -9 -8 -8 -8 -8 -8 -8 -8 -8 -8 -8 -8 -8 -8 -8 -9 -9 -9 -9 -9 -9 -9 -9 -9 -9 -9 -9
-10 -10 -10 -10 -11 -11 -10 -10 -10 -10 -11 -11 -10 -10 -10 -10 -9 -9 -9 -9 -9 -9 -9 -9 -8 -8 -8 -8 -8 -8 -8 -8 -8 -9 -9 -9 -9 -9 -9 -9 -9 -9 -9 -9 -9 -9 -9 -9 -9
-11 -10 -10 -10 -11 -11 -11 -10 -10 -10 -11 -11 -11 -11 -10 -10 -10 -10 -9 -9 -9 -9 -9 -9 -9 -8 -8 -8 -8 -9 -9 -8 -9 -9 -9 -9 -9 -9 -9 -9 -9 -9 -9 -9 -9 -9 -10 -10 -10
-11 -11 -10 -11 -11 -11 -11 -11 -10 -10 -11 -11 -11 -10 -10 -10 -10 -10 -10 -10 -10 -10 -9 -9 -9 -9 -9 -8 -8 -8 -9 -9 -9 -9 -9 -9 -9 -9 -9 -9 -9 -9 -9 -9 -9 -9 -9 -9 -9
-11 -11 -11 -11 -11 -11 -11 -11 -11 -10 -11 -11 -11 -10 -11 -10 -10 -10 -10 -10 -10 -10 -10 -10 -9 -9 -9 -9 -9 -8 -8 -9 -9 -9 -9 -9 -9 -9 -9 -9 -9 -9 -9 -9 -9 -9 -9 -9 -9
-12 -12 -11 -11 -11 -11 -11 -12 -11 -11 -10 -11 -11 -11 -11 -11 -10 -10 -10 -10 -10 -10 -10 -10 -9 -9 -9 -9 -9 -9 -8 -8 -9 -9 -9 -9 -9 -9 -9 -9 -9 -9 -9 -9 -9 -9 -9 -9 -9
-12 -12 -11 -11 -11 -11 -12 -11 -11 -11 -11 -11 -10 -11 -11 -11 -11 -10 -10 -10 -10 -10 -10 -10 -10 -9 -9 -9 -9 -9 -9 -9 -9 -9 -9 -9 -9 -9 -9 -9 -9 -9 -9 -9 -9 -9 -9 -9 -9
-12 -12 -12 -11 -11 -11 -12 -11 -12 -11 -11 -10 -10 -10 -11 -11 -11 -11 -10 -10 -10 -10 -10 -10 -10 -10 -10 -9 -9 -9 -9 -9 -9 -9 -9 -9 -9 -9 -9 -9 -9 -9 -9 -9 -9 -9 -9 -9 -9
-12 -12 -12 -12 -12 -12 -12 -11 -12 -12 -11 -11 -11 -10 -11 -11 -11 -11 -11 -11 -10 -11 -10 -10 -10 -10 -10 -10 -10 -10 -10 -10 -10 -10 -10 -10 -10 -10 -10 -10 -10 -10 -10 -9 -9 -9 -9 -9 -9
-13 -13 -13 -13 -12 -12 -12 -12 -12 -12 -12 -11 -11 -11 -11 -11 -11 -11 -11 -11 -11 -11 -11 -10 -10 -11 -10 -10 -10 -10 -10 -10 -10 -10 -10 -10 -10 -10 -10 -10 -10 -10 -10 -10 -10 -10 -10 -10 -10
-13 -13 -13 -13 -12 -12 -12 -12 -12 -13 -12 -12 -11 -11 -12 -11 -12 -11 -11 -11 -11 -11 -11 -11 -11 -11 -11 -11 -11 -11 -11 -11 -11 -11 -11 -11 -10 -10 -10 -10 -11 -11 -11 -11 -10 -10 -10 -10 -10
-13 -13 -13 -13 -13 -13 -13 -12 -12 -12 -13 -12 -12 -12 -11 -12 -12 -12 -11 -11 -11 -11 -12 -12 -12 -12 -11 -11 -12 -11 -11 -11 -11 -11 -11 -11 -11 -11 -11 -11 -11 -11 -11 -11 -11 -11 -11 -10 -10
-13 -13 -13 -14 -13 -13 -13 -13 -12 -12 -12 -12 -12 -12 -12 -11 -12 -12 -13 -13 -12 -12 -12 -12 -12 -11 -11 -12 -12 -12 -12 -12 -12 -12 -12 -11 -11 -11 -11 -11 -11 -11 -11 -11 -11 -11 -11 -11 -11
-14 -14 -14 -14 -13 -13 -13 -13 -13 -12 -12 -13 -13 -13 -12 -12 -12 -12 -12 -12 -13 -12 -12 -12 -12 -12 -12 -11 -12 -12 -12 -12 -12 -12 -12 -12 -12 -12 -12 -12 -12 -12 -12 -11 -11 -11 -11 -11 -11
-14 -14 -14 -14 -14 -14 -13 -14 -14 -13 -13 -13 -13 -13 -13 -13 -13 -13 -12 -12 -12 -12 -13 -12 -12 -12 -11 -11 -12 -12 -12 -12 -12 -12 -12 -12 -12 -12 -12 -12 -12 -12 -12 -12 -12 -11 -11 -11 -11
-15 -15 -14 -14 -15 -14 -14 -14 -15 -14 -13 -14 -14 -14 -14 -13 -13 -13 -13 -13 -11 -11 -12 -12 -12 -13 -12 -12 -13 -13 -12 -12 -12 -12 -12 -12 -12 -12 -12 -12 -12 -12 -12 -12 -12 -12 -12 -12 -12
-15 -15 -15 -15 -15 -14 -14 -14 -15 -13 -14 -14 -14 -13 -14 -14 -13 -13 -13 -13 -12 -12 -12 -12 -12 -13 -13 -13 -13 -12 -12 -12 -12 -12 -12 -12 -12 -12 -12 -12 -12 -12 -12 -12 -12 -12 -12 -12 -12
-15 -15 -15 -14 -14 -15 -14 -14 -14 -14 -14 -14 -14 -14 -14 -14 -14 -14 -13 -13 -13 -12 -12 -13 -13 -13 -13 -13 -13 -13 -13 -13 -13 -13 -12 -12 -13 -13 -13 -13 -13 -13 -12 -12 -12 -12 -12 -12 -12
-15 -16 -16 -16 -15 -16 -14 -14 -14 -14 -14 -14 -14 -14 -15 -15 -15 -14 -14 -13 -13 -13 -13 -13 -13 -13 -13 -13 -13 -13 -13 -13 -14 -13 -13 -12 -12 -13 -13 -13 -13 -13 -13 -13 -13 -13 -13 -13 -12
-16 -16 -16 -15 -16 -15 -15 -14 -15 -14 -14 -14 -15 -15 -14 -15 -15 -15 -14 -14 -14 -13 -13 -13 -14 -14 -13 -13 -13 -13 -13 -14 -13 -13 -13 -12 -13 -12 -13 -13 -13 -13 -13 -13 -13 -13 -13 -13 -13
-17 -16 -16 -17 -16 -17 -16 -16 -14 -14 -14 -14 -14 -15 -15 -15 -15 -15 -15 -15 -14 -14 -14 -14 -14 -14 -14 -14 -14 -14 -14 -14 -14 -13 -13 -13 -13 -12 -12 -13 -13 -13 -13 -14 -13 -13 -14 -13 -13
-17 -18 -17 -17 -16 -16 -18 -17 -15 -15 -15 -15 -15 -15 -15 -15 -15 -15 -16 -15 -15 -14 -14 -14 -14 -14 -14 -14 -14 -14 -14 -14 -14 -14 -13 -13 -13 -13 -12 -13 -12 -13 -13 -14 -14 -14 -14 -13 -14
Height
5843 5845 5847 5849 5852 5852 5855 5855 5854 5854 5854 5854 5853 5853 5853 5851 5850 5851 5848 5848 5846 5844 5842 5840 5841 5840 5840 5840 5839 5838 5839 5839 5840 5840 5841 5842 5843 5845 5847 5848 5849 5851 5853 5854 5854 5859 5863 5865 5866
5838 5841 5843 5845 5848 5850 5854 5851 5853 5853 5852 5852 5852 5852 5851 5850 5849 5848 5848 5848 5847 5845 5843 5842 5842 5841 5841 5841 5840 5839 5839 5840 5841 5843 5843 5844 5846 5848 5850 5852 5853 5854 5856 5858 5860 5863 5865 5867 5869
5834 5836 5839 5841 5843 5847 5851 5847 5850 5850 5850 5850 5851 5850 5850 5849 5848 5847 5848 5849 5848 5846 5844 5844 5844 5842 5842 5842 5842 5840 5841 5842 5843 5844 5846 5848 5849 5851 5853 5854 5856 5857 5859 5861 5864 5867 5867 5869 5871
5829 5832 5834 5837 5840 5840 5842 5843 5847 5848 5848 5848 5849 5849 5850 5848 5847 5847 5848 5849 5848 5846 5846 5846 5845 5844 5844 5843 5843 5842 5843 5844 5845 5846 5848 5850 5852 5854 5856 5857 5858 5860 5863 5865 5866 5867 5869 5870 5871
5823 5826 5828 5832 5834 5836 5838 5840 5843 5845 5846 5846 5847 5848 5848 5847 5846 5846 5847 5849 5848 5847 5847 5848 5847 5846 5845 5844 5844 5844 5844 5846 5847 5848 5850 5852 5854 5855 5857 5859 5860 5862 5863 5865 5867 5868 5870 5870 5871
5816 5820 5824 5828 5830 5830 5833 5836 5839 5841 5842 5844 5846 5846 5847 5846 5846 5845 5847 5848 5848 5848 5849 5849 5848 5848 5847 5846 5846 5845 5846 5848 5848 5850 5852 5854 5855 5856 5858 5860 5861 5863 5865 5866 5868 5869 5870 5870 5871
5811 5814 5818 5821 5824 5826 5827 5832 5835 5837 5839 5840 5843 5843 5845 5845 5845 5845 5846 5847 5848 5848 5850 5851 5850 5849 5848 5847 5847 5846 5848 5849 5850 5851 5853 5855 5857 5858 5860 5862 5863 5865 5867 5868 5869 5869 5870 5871 5872
5806 5808 5811 5816 5819 5820 5822 5827 5831 5833 5835 5837 5840 5841 5843 5843 5844 5845 5845 5846 5847 5848 5850 5851 5850 5851 5849 5848 5849 5849 5849 5850 5852 5854 5856 5857 5859 5861 5863 5864 5866 5867 5868 5869 5870 5870 5871 5871 5871
5798 5800 5805 5811 5814 5814 5817 5821 5825 5829 5832 5833 5836 5837 5839 5841 5843 5844 5844 5844 5845 5848 5849 5852 5851 5852 5852 5851 5850 5851 5852 5853 5854 5856 5857 5859 5860 5862 5864 5865 5867 5868 5869 5870 5870 5871 5871 5871 5871
5790 5794 5800 5805 5807 5807 5811 5815 5819 5824 5827 5830 5833 5835 5837 5838 5840 5842 5844 5844 5844 5847 5849 5851 5852 5852 5853 5853 5853 5853 5853 5854 5855 5857 5859 5860 5862 5864 5865 5866 5867 5868 5870 5870 5870 5871 5870 5870 5871
5784 5788 5795 5798 5798 5799 5803 5809 5814 5818 5823 5827 5830 5831 5833 5835 5838 5840 5842 5844 5844 5847 5849 5852 5853 5853 5854 5853 5854 5855 5855 5856 5857 5858 5859 5861 5863 5865 5866 5867 5868 5868 5869 5870 5870 5870 5870 5870 5870
5775 5782 5786 5789 5789 5792 5797 5802 5809 5813 5818 5821 5824 5827 5831 5832 5835 5838 5840 5842 5842 5845 5849 5851 5852 5853 5853 5854 5855 5855 5857 5857 5858 5859 5860 5861 5863 5864 5866 5867 5868 5868 5869 5868 5868 5868 5869 5868 5868
5767 5774 5777 5780 5781 5785 5788 5796 5800 5807 5812 5815 5820 5824 5827 5829 5832 5835 5838 5839 5842 5843 5845 5849 5851 5852 5853 5854 5855 5855 5857 5859 5859 5859 5860 5861 5862 5863 5865 5867 5868 5868 5868 5868 5868 5867 5867 5866 5866
5760 5765 5770 5770 5773 5776 5781 5787 5792 5801 5805 5809 5814 5819 5822 5825 5828 5832 5835 5837 5838 5840 5842 5845 5848 5850 5851 5852 5854 5854 5855 5857 5859 5860 5860 5861 5862 5863 5863 5864 5866 5866 5867 5867 5867 5866 5866 5865 5864
5753 5755 5760 5762 5765 5768 5774 5776 5785 5793 5797 5802 5807 5813 5816 5820 5824 5828 5831 5833 5835 5837 5838 5841 5844 5847 5849 5850 5853 5854 5854 5855 5857 5858 5859 5861 5861 5862 5863 5863 5863 5864 5864 5865 5864 5864 5864 5863 5862
5745 5747 5751 5755 5757 5763 5766 5770 5781 5784 5790 5796 5800 5806 5810 5815 5818 5821 5825 5828 5831 5834 5837 5838 5840 5843 5846 5848 5850 5852 5855 5855 5855 5856 5858 5859 5859 5860 5860 5861 5861 5862 5862 5862 5862 5862 5861 5860 5859
5738 5742 5744 5747 5751 5754 5758 5763 5772 5773 5781 5787 5792 5798 5803 5807 5811 5815 5820 5823 5827 5830 5832 5835 5836 5838 5841 5844 5847 5849 5851 5853 5854 5855 5855 5857 5858 5859 5859 5859 5859 5859 5860 5859 5859 5859 5858 5857 5856
5732 5733 5736 5738 5741 5744 5750 5754 5763 5763 5773 5779 5784 5790 5795 5799 5805 5808 5812 5817 5821 5824 5827 5829 5832 5834 5837 5840 5843 5845 5848 5849 5850 5851 5852 5854 5855 5856 5857 5857 5857 5857 5857 5857 5856 5855 5854 5853 5852
5723 5725 5730 5732 5734 5737 5742 5744 5754 5757 5763 5769 5774 5782 5788 5793 5796 5800 5805 5810 5814 5818 5821 5824 5828 5831 5833 5835 5838 5840 5842 5844 5847 5848 5849 5849 5850 5851 5852 5852 5853 5853 5852 5852 5852 5852 5850 5848 5847
5713 5718 5722 5725 5727 5730 5733 5736 5745 5747 5754 5760 5767 5773 5780 5784 5789 5793 5798 5803 5807 5811 5814 5816 5821 5824 5827 5829 5832 5834 5837 5840 5842 5844 5844 5846 5846 5846 5847 5848 5848 5848 5847 5847 5847 5847 5846 5843 5842
5704 5710 5715 5718 5720 5722 5724 5726 5733 5738 5745 5751 5758 5764 5771 5777 5782 5787 5790 5794 5796 5802 5805 5808 5813 5814 5818 5823 5826 5829 5832 5835 5836 5837 5839 5840 5841 5841 5842 5843 5843 5844 5843 5842 5842 5842 5841 5840 5837
5695 5702 5705 5708 5713 5715 5717 5721 5723 5730 5735 5741 5749 5756 5762 5768 5774 5779 5782 5786 5790 5792 5795 5801 5804 5808 5811 5816 5819 5822 5824 5826 5828 5831 5834 5835 5835 5835 5837 5838 5838 5838 5837 5837 5836 5836 5835 5835 5833
5688 5693 5696 5699 5704 5706 5710 5712 5718 5721 5724 5732 5738 5746 5753 5760 5767 5771 5775 5778 5782 5784 5787 5790 5793 5799 5800 5805 5809 5812 5816 5819 5822 5825 5826 5827 5827 5828 5830 5830 5832 5831 5831 5830 5830 5829 5828 5827 5826
5674 5682 5686 5691 5694 5697 5702 5706 5709 5709 5715 5722 5729 5733 5741 5750 5757 5761 5765 5768 5770 5774 5779 5780 5786 5789 5793 5795 5800 5805 5809 5812 5813 5816 5817 5818 5819 5820 5822 5823 5824 5824 5823 5823 5823 5822 5821 5820 5819
5664 5670 5676 5680 5682 5690 5692 5695 5700 5701 5707 5712 5713 5718 5729 5737 5744 5751 5756 5759 5763 5767 5770 5774 5776 5783 5783 5787 5793 5797 5799 5802 5804 5806 5809 5810 5810 5810 5813 5814 5815 5816 5816 5815 5815 5815 5814 5813 5812
5656 5662 5667 5671 5676 5682 5683 5687 5687 5695 5699 5701 5706 5711 5719 5726 5734 5740 5746 5751 5754 5757 5762 5765 5768 5771 5774 5778 5782 5784 5786 5792 5794 5797 5799 5799 5798 5800 5803 5805 5807 5808 5808 5808 5808 5808 5807 5806 5805
5646 5648 5661 5661 5665 5672 5675 5678 5680 5686 5691 5694 5698 5703 5709 5716 5724 5730 5736 5742 5748 5751 5755 5757 5761 5765 5766 5768 5771 5773 5777 5781 5784 5786 5787 5786 5787 5789 5792 5795 5795 5798 5800 5799 5800 5799 5798 5797 5796
5634 5645 5646 5651 5655 5662 5665 5669 5669 5676 5682 5687 5691 5694 5700 5706 5714 5721 5727 5732 5737 5742 5746 5751 5753 5755 5760 5763 5764 5767 5768 5773 5776 5777 5777 5778 5779 5781 5781 5783 5786 5787 5790 5790 5790 5790 5790 5789 5788
5624 5630 5635 5642 5646 5653 5657 5660 5662 5668 5674 5678 5684 5689 5692 5697 5703 5710 5717 5723 5727 5730 5735 5741 5745 5747 5750 5753 5757 5760 5763 5765 5767 5767 5766 5768 5770 5770 5771 5774 5775 5777 5779 5780 5781 5781 5781 5780 5779
5610 5617 5624 5629 5636 5641 5650 5648 5654 5659 5665 5670 5675 5679 5684 5689 5693 5698 5704 5710 5715 5722 5726 5730 5735 5738 5741 5744 5748 5751 5753 5755 5756 5757 5758 5760 5759 5762 5761 5762 5764 5766 5768 5769 5771 5772 5772 5772 5771
Wind_Speed
21 23 25 22 22 20 13 14 11 8 5 8 3 4 6 6 7 4 5 10 10 9 10 11 13 16 12 15 15 18 20 21 21 22 20 17 18 19 16 12 15 18 18 16 15 17 14 14 11
23 22 24 25 24 18 15 17 11 11 6 9 4 5 6 6 7 5 4 8 9 8 10 10 12 17 15 15 19 20 22 24 20 20 21 23 22 21 19 17 14 15 17 18 18 16 14 14 12
28 25 25 25 24 18 20 20 14 12 8 6 8 6 6 6 8 5 5 7 7 6 9 9 12 16 17 17 20 23 20 22 22 21 21 19 18 18 19 17 16 18 16 14 16 13 12 11 9
31 30 29 26 24 27 24 23 17 14 10 6 8 8 7 7 7 7 5 5 6 6 9 9 12 14 18 19 20 26 26 20 22 21 18 16 16 16 18 17 13 14 13 12 10 10 10 9 7
32 33 33 28 27 26 23 21 19 18 13 10 8 10 7 7 7 7 6 5 7 8 10 10 12 14 18 21 23 24 25 24 25 25 24 22 22 23 18 18 16 14 13 12 12 10 9 7 6
36 35 35 31 28 28 27 21 18 19 15 13 11 11 11 8 7 6 9 7 8 10 9 10 13 14 18 22 23 25 24 25 24 24 24 24 22 22 20 19 18 16 15 14 13 12 10 9 7
33 37 35 35 33 30 30 24 20 20 19 13 15 10 14 11 6 7 9 10 10 12 10 11 14 16 19 21 23 27 26 25 25 24 24 23 22 21 21 19 18 16 13 12 12 10 8 7 6
32 36 39 34 35 36 33 28 23 21 20 17 16 12 16 15 10 8 10 12 12 12 13 13 16 17 20 23 23 25 26 26 26 27 26 25 24 23 22 21 19 17 14 12 11 9 7 6 5
35 36 38 36 36 38 35 32 28 25 21 17 16 11 16 14 14 12 12 15 14 14 16 16 16 18 21 24 27 27 27 28 27 25 24 22 21 20 18 16 14 13 11 8 7 6 5 3 2
40 38 34 37 37 40 38 34 32 28 25 21 16 12 16 14 15 15 13 15 16 16 16 17 18 18 20 21 23 25 25 24 23 22 21 19 17 16 14 12 10 8 6 4 3 2 2 3 4
41 40 32 34 42 43 41 36 34 31 28 24 20 17 20 18 16 16 16 15 16 15 16 18 20 20 19 18 18 17 18 19 19 18 18 16 14 12 10 8 7 6 4 2 2 3 4 6 6
45 40 38 34 42 45 44 42 36 32 31 30 26 22 21 21 19 19 18 17 16 15 15 17 19 19 19 17 16 15 13 13 14 15 15 15 12 9 7 7 7 7 6 6 3 1 2 3 3
43 42 40 39 40 45 46 41 40 36 34 33 30 25 21 23 22 21 21 19 16 16 17 17 18 18 18 16 15 14 12 11 11 12 13 11 10 8 7 5 3 3 4 4 5 4 3 3 5
33 39 42 45 42 44 46 44 44 39 37 36 32 31 26 26 24 24 23 21 19 19 19 18 18 18 18 17 16 15 14 11 9 8 9 9 8 7 6 4 2 3 3 3 3 5 6 7 8
25 33 43 47 45 44 44 48 45 42 40 38 37 34 34 29 31 26 27 26 24 23 22 21 19 19 19 18 16 15 14 14 12 11 10 9 9 8 6 5 4 4 4 5 6 8 9 10 12
29 28 37 46 46 43 44 47 42 45 43 41 38 38 38 36 32 28 33 32 30 26 23 22 21 21 20 19 18 16 15 14 13 13 12 12 10 10 9 7 6 5 5 7 8 9 11 12 14
33 27 28 38 46 43 45 46 44 49 47 45 42 39 40 41 40 39 32 36 32 30 28 26 24 21 21 20 18 17 16 15 14 12 11 11 10 9 9 8 8 8 9 10 11 12 14 15 16
36 30 26 30 41 46 46 45 43 50 48 47 46 44 42 44 42 42 41 37 35 34 34 32 30 26 23 21 20 19 18 16 15 14 14 13 13 13 13 12 12 13 14 15 16 16 18 19 20
38 36 32 29 34 44 48 46 42 48 50 50 50 46 45 41 44 40 44 42 42 42 38 33 33 30 28 25 25 24 23 20 18 17 17 16 15 16 17 18 18 19 19 20 20 20 20 20 22
42 41 35 31 29 33 44 48 40 44 51 51 50 47 46 46 45 42 41 47 44 44 46 37 37 34 33 32 31 28 25 21 19 20 21 20 20 20 21 21 21 21 21 21 22 23 23 22 23
43 41 36 32 32 31 37 46 45 46 43 53 52 48 48 48 47 46 45 43 47 47 50 40 42 46 41 37 34 30 26 24 25 27 27 24 23 23 23 23 22 22 22 22 23 24 25 25 24
43 37 37 37 34 32 33 38 44 44 43 45 52 53 48 47 51 51 48 49 46 51 50 40 44 50 45 44 41 36 35 32 32 31 28 27 28 28 27 27 26 25 24 23 23 25 25 26 28
41 39 38 38 36 37 33 35 32 43 45 41 47 53 51 46 42 45 46 48 54 51 52 52 58 51 53 43 45 38 34 35 36 35 33 34 33 33 33 31 30 28 27 26 26 26 26 27 28
46 41 41 39 38 40 36 33 29 36 42 39 41 49 52 50 48 45 48 51 59 55 58 57 46 35 36 37 32 29 34 37 42 40 40 40 39 36 37 34 35 32 30 29 30 31 29 30 31
48 47 44 43 44 41 40 39 31 34 35 40 46 47 48 51 50 48 50 53 58 63 54 54 48 42 37 30 34 36 36 41 44 44 43 43 43 43 42 38 38 36 36 34 32 32 30 29 31
47 47 46 49 45 39 43 40 41 33 31 36 41 42 48 50 50 52 52 53 62 60 55 52 40 44 39 41 42 43 45 44 46 46 46 49 48 45 40 41 41 37 37 34 33 34 33 31 34
48 50 41 45 44 35 44 42 41 37 34 32 37 42 46 51 53 53 55 56 58 58 52 49 50 46 42 41 42 48 45 45 46 48 47 51 52 49 46 41 46 40 40 38 36 36 35 36 36
50 47 49 49 46 42 43 43 43 40 38 34 32 35 42 48 54 55 57 58 59 58 52 55 53 49 51 51 48 46 47 47 49 49 52 52 52 50 47 46 48 47 43 40 38 38 36 35 33
52 50 51 48 48 36 34 42 45 40 38 37 34 31 35 39 45 56 60 60 60 57 51 51 55 56 57 57 57 55 54 53 53 54 56 55 51 49 55 53 54 50 42 41 39 38 35 35 35
55 52 51 53 51 49 31 35 46 42 41 39 35 35 33 34 39 44 52 53 53 60 60 56 56 59 63 64 61 55 51 51 54 56 56 52 57 60 54 56 56 48 41 42 38 39 38 40 38
Wind_Direction
238 235 232 239 244 247 247 256 267 274 272 229 273 297 279 270 230 212 127 126 113 94 93 93 97 98 104 104 99 124 124 113 108 115 114 113 120 116 124 128 120 111 110 108 117 140 146 154 146
236 236 237 234 240 247 252 251 257 262 271 225 267 277 285 266 230 225 159 140 116 97 89 96 104 102 104 104 101 120 121 115 110 115 107 110 109 104 114 111 123 132 108 107 121 135 136 147 150
238 235 235 236 239 235 234 243 245 251 261 258 248 255 271 259 239 225 213 164 133 112 100 106 109 107 108 106 105 112 116 115 114 109 115 113 108 109 96 96 99 112 112 108 111 121 121 129 136
236 236 235 236 238 237 241 241 239 243 253 266 231 239 255 254 251 229 229 200 148 136 118 128 117 113 115 113 113 108 106 123 113 117 112 115 116 109 93 92 96 111 115 116 116 110 114 116 123
234 234 235 232 233 240 240 238 232 237 243 250 246 223 231 249 239 222 217 207 161 145 129 148 131 120 121 119 115 114 111 110 108 107 107 107 107 105 98 97 93 115 113 113 112 108 110 118 118
235 233 234 235 235 236 238 233 229 233 238 242 234 221 213 221 216 206 207 194 162 145 147 151 141 136 127 122 121 118 118 117 116 115 111 111 113 113 110 108 107 106 107 106 105 104 107 106 109
234 234 232 232 232 234 234 233 228 233 232 230 242 219 207 204 195 199 200 188 170 146 159 161 147 143 136 128 122 121 122 121 120 119 118 120 120 121 121 119 117 117 120 123 125 129 133 140 148
236 233 233 231 230 234 234 233 229 232 230 230 241 223 206 204 195 196 187 180 173 159 163 163 151 146 136 131 128 126 124 122 120 119 118 116 113 110 111 109 110 111 111 112 116 116 120 130 141
235 234 232 229 229 237 234 232 229 230 230 226 231 227 204 205 203 194 190 173 163 167 163 166 158 149 140 135 132 129 127 125 125 124 124 123 122 120 117 116 117 115 115 119 116 127 136 147 162
234 234 231 228 228 234 233 231 228 227 228 230 228 227 202 197 210 194 194 179 161 172 168 170 166 156 145 139 137 137 137 137 136 135 134 133 130 127 123 120 117 118 126 136 148 176 213 242 257
233 233 233 229 228 230 232 230 230 226 224 225 221 222 207 197 210 199 195 192 167 172 173 176 168 160 157 153 150 147 145 145 144 142 143 142 139 134 126 121 120 114 104 122 218 238 252 262 271
236 232 228 228 228 230 231 231 228 228 221 220 218 224 217 204 204 197 187 183 174 177 187 188 179 174 169 169 165 162 160 158 156 154 156 155 147 135 123 108 94 82 72 67 65 8 317 302 290
238 234 229 228 229 229 231 228 226 226 221 219 217 219 225 217 209 196 186 188 185 179 186 198 195 189 183 181 177 175 173 170 166 164 168 168 159 144 137 127 98 54 37 37 40 37 17 332 306
240 234 232 229 229 229 229 228 226 223 220 217 219 213 220 221 220 203 190 187 186 191 190 198 204 204 199 196 191 187 183 187 182 179 180 182 180 176 181 198 263 309 319 332 334 342 335 322 312
250 237 230 232 233 231 227 229 224 223 220 217 217 215 209 213 219 206 199 200 196 199 192 192 200 207 209 205 204 203 193 187 190 190 193 202 203 207 219 233 259 289 295 313 291 294 299 297 298
248 244 233 231 235 234 231 230 223 224 224 218 217 212 212 217 217 211 207 208 207 206 206 195 195 201 207 208 207 205 209 204 199 199 202 205 215 226 236 245 257 272 282 295 299 298 298 298 294
245 249 242 234 233 238 236 232 223 223 222 223 217 214 208 216 220 222 223 213 212 209 210 208 197 196 204 205 207 208 207 205 207 210 209 215 221 230 245 252 260 271 276 279 283 289 294 297 297
241 243 240 234 233 234 236 237 226 225 221 225 222 215 216 212 218 222 220 217 220 216 212 211 211 201 203 207 213 214 217 219 217 219 224 230 239 250 259 269 278 282 284 286 287 286 288 291 293
237 239 241 239 239 233 234 237 233 226 221 221 225 222 217 216 218 224 220 218 216 221 216 215 217 213 206 208 216 219 222 227 236 239 240 241 246 257 267 275 284 287 288 287 286 286 286 289 291
233 235 239 241 242 237 234 237 233 232 225 221 223 222 219 213 217 221 228 219 219 220 222 217 220 217 213 211 215 220 225 227 232 241 245 252 257 261 267 272 278 282 285 287 288 287 285 285 287
232 232 236 238 240 239 235 234 232 233 230 226 221 224 222 219 215 219 227 229 223 222 227 227 222 219 213 216 216 215 218 225 234 242 247 252 257 259 263 270 276 280 283 285 287 289 290 289 287
231 228 230 234 237 241 238 239 235 230 232 229 226 223 223 221 218 220 225 231 234 223 223 229 239 230 227 223 214 216 220 227 236 244 249 252 252 254 260 270 270 275 281 283 285 288 289 290 290
228 225 227 231 233 237 240 239 237 228 231 228 226 227 226 222 220 220 227 230 227 229 235 234 237 235 235 207 213 216 227 234 242 246 248 251 253 257 264 265 268 269 272 277 285 286 286 287 286
226 222 226 229 230 234 237 234 236 234 226 224 221 224 224 224 223 221 222 227 225 231 239 227 234 239 243 223 222 227 239 246 248 248 249 251 254 256 259 263 261 262 266 272 279 281 281 282 282
222 221 222 223 226 231 231 233 225 238 232 224 224 227 222 224 222 223 222 226 226 234 240 253 250 242 243 235 235 242 246 246 246 248 249 252 252 251 256 259 255 260 267 273 273 273 280 285 282
226 226 226 227 228 229 233 235 236 238 233 229 225 226 220 221 215 211 220 225 230 232 238 243 244 245 242 246 246 243 245 243 246 247 249 248 249 253 253 256 255 259 266 268 265 268 276 281 284
220 222 218 224 226 219 232 234 239 236 232 231 227 226 221 220 219 216 217 222 226 232 232 239 242 240 243 243 246 247 248 245 244 244 246 256 253 250 253 254 251 253 264 266 262 267 276 281 284
222 220 221 225 226 227 231 232 238 237 236 232 230 226 224 221 219 216 217 219 226 229 227 236 244 247 247 247 249 254 251 250 252 253 251 251 255 260 248 255 255 260 257 260 261 268 276 281 283
221 222 221 226 227 221 229 231 236 238 238 236 231 225 226 226 223 219 220 224 229 228 230 236 240 244 247 250 253 254 256 256 256 254 252 248 253 250 254 256 257 258 252 256 261 267 273 278 284
221 217 222 226 226 226 219 235 235 237 237 236 231 229 226 224 225 224 225 228 229 229 233 235 235 239 244 247 250 252 254 257 256 256 260 265 264 253 253 254 254 257 258 251 258 266 273 277 281